AFL232 UUEE-VIDP

Flight info

Callsign AFL232
Flight time N/A
Altitude 35000
Route N0490F350 TOGMO M56 DENUD M161 MILSO M875 TAPIS L509 ASARI A466 ELKUX
Aircraft B77W/H-VGDW/C

Departure

Time N/A
Airport Sheremetyevo International Airport (UUEE)

Arrival

Time 2026-05-06 14:24
Airport Indira Gandhi International Airport (VIDP)
Time Latitude Longitude Altitude Speed Heading
2026-05-06 13:28 32.97211 72.89596 36786 ft 531 kts 121°
2026-05-06 13:29 32.95183 72.93271 36782 ft 531 kts 121°
2026-05-06 13:29 32.91809 72.99376 36788 ft 531 kts 121°
2026-05-06 13:30 32.87743 73.06721 36788 ft 531 kts 121°
2026-05-06 13:30 32.83678 73.14052 36786 ft 531 kts 121°
2026-05-06 13:31 32.79588 73.21388 36780 ft 532 kts 123°
2026-05-06 13:31 32.74792 73.28114 36777 ft 534 kts 134°
2026-05-06 13:32 32.69117 73.33851 36772 ft 535 kts 142°
2026-05-06 13:32 32.63214 73.39235 36774 ft 535 kts 142°
2026-05-06 13:33 32.57316 73.44630 36773 ft 536 kts 142°
2026-05-06 13:33 32.51438 73.50065 36770 ft 536 kts 142°
2026-05-06 13:34 32.45561 73.55515 36766 ft 536 kts 142°
2026-05-06 13:34 32.39712 73.60929 36772 ft 536 kts 142°
2026-05-06 13:35 32.33816 73.66373 36774 ft 537 kts 142°
2026-05-06 13:35 32.27924 73.71801 36769 ft 537 kts 142°
2026-05-06 13:36 32.22022 73.77230 36770 ft 537 kts 142°
2026-05-06 13:36 32.16116 73.82653 36773 ft 537 kts 142°
2026-05-06 13:37 32.10245 73.88035 36774 ft 537 kts 142°
2026-05-06 13:37 32.04345 73.93435 36764 ft 538 kts 143°
2026-05-06 13:38 31.98440 73.98831 36766 ft 537 kts 143°
2026-05-06 13:38 31.92518 74.04232 36762 ft 538 kts 143°
2026-05-06 13:39 31.86605 74.09617 36761 ft 538 kts 143°
2026-05-06 13:39 31.80676 74.15006 36755 ft 537 kts 143°
2026-05-06 13:40 31.74791 74.20348 36750 ft 537 kts 143°
2026-05-06 13:40 31.68868 74.25716 36749 ft 537 kts 143°
2026-05-06 13:41 31.62940 74.31078 36749 ft 538 kts 143°
2026-05-06 13:41 31.57027 74.36459 36720 ft 538 kts 143°
2026-05-06 13:42 31.51089 74.41806 36743 ft 538 kts 143°
2026-05-06 13:42 31.45137 74.47129 36756 ft 539 kts 143°
2026-05-06 13:43 31.39184 74.52483 36752 ft 540 kts 143°
2026-05-06 13:43 31.33289 74.57933 36748 ft 541 kts 139°
2026-05-06 13:44 31.27785 74.63969 36744 ft 542 kts 136°
2026-05-06 13:44 31.22332 74.70068 36749 ft 542 kts 137°
2026-05-06 13:45 31.16892 74.76083 36740 ft 542 kts 137°
2026-05-06 13:45 31.08635 74.85125 36745 ft 542 kts 137°
2026-05-06 13:46 31.03135 74.91135 36756 ft 542 kts 137°
2026-05-06 13:46 30.97626 74.97151 36752 ft 542 kts 137°
2026-05-06 13:47 30.92123 75.03151 36752 ft 542 kts 137°
2026-05-06 13:47 30.86616 75.09146 36752 ft 541 kts 137°
2026-05-06 13:48 30.80784 75.14554 36756 ft 538 kts 150°
2026-05-06 13:48 30.74100 75.18386 36747 ft 532 kts 165°
2026-05-06 13:49 30.67030 75.20962 36751 ft 531 kts 167°
2026-05-06 13:49 30.59945 75.23461 36753 ft 532 kts 166°
2026-05-06 13:50 30.52914 75.26008 36753 ft 533 kts 166°
2026-05-06 13:50 30.45834 75.28611 36751 ft 534 kts 166°
2026-05-06 13:51 30.38750 75.31218 36748 ft 534 kts 166°
2026-05-06 13:51 30.31652 75.33821 36753 ft 534 kts 166°
2026-05-06 13:52 30.24562 75.36413 36749 ft 534 kts 167°
2026-05-06 13:52 30.17466 75.39003 36750 ft 534 kts 167°
2026-05-06 13:53 30.10367 75.41591 36751 ft 534 kts 167°
2026-05-06 13:53 30.03329 75.44154 36749 ft 534 kts 167°
2026-05-06 13:54 29.96242 75.46730 36748 ft 534 kts 167°
2026-05-06 13:54 29.89154 75.49304 36751 ft 534 kts 167°
2026-05-06 13:55 29.82489 75.53063 36744 ft 544 kts 141°
2026-05-06 13:55 29.77403 75.59584 36757 ft 545 kts 131°
2026-05-06 13:56 29.72476 75.66253 36641 ft 550 kts 131°
2026-05-06 13:56 29.69942 75.69611 35870 ft 560 kts 132°
2026-05-06 13:56 29.67371 75.72971 35148 ft 559 kts 132°
2026-05-06 13:57 29.64806 75.76292 34275 ft 553 kts 132°
2026-05-06 13:57 29.62261 75.79572 33410 ft 546 kts 132°
2026-05-06 13:57 29.59727 75.82833 32460 ft 548 kts 132°
2026-05-06 13:57 29.57183 75.86106 31542 ft 549 kts 132°
2026-05-06 13:58 29.54647 75.89371 30574 ft 540 kts 132°
2026-05-06 13:58 29.52220 75.92497 29683 ft 524 kts 132°
2026-05-06 13:58 29.49803 75.95609 29043 ft 520 kts 132°
2026-05-06 13:58 29.47404 75.98697 28374 ft 516 kts 132°
2026-05-06 13:59 29.45030 76.01750 27772 ft 511 kts 132°
2026-05-06 13:59 29.42673 76.04779 27168 ft 506 kts 132°
2026-05-06 13:59 29.40337 76.07777 26587 ft 502 kts 132°
2026-05-06 13:59 29.38019 76.10751 25994 ft 498 kts 132°
2026-05-06 14:00 29.35718 76.13701 25419 ft 494 kts 132°
2026-05-06 14:00 29.33436 76.16623 24839 ft 491 kts 132°
2026-05-06 14:00 29.31160 76.19537 24252 ft 488 kts 132°
2026-05-06 14:00 29.28894 76.22436 23659 ft 486 kts 132°
2026-05-06 14:01 29.26641 76.25315 23025 ft 484 kts 132°
2026-05-06 14:01 29.24401 76.28176 22374 ft 481 kts 132°
2026-05-06 14:01 29.22177 76.31015 21777 ft 477 kts 132°
2026-05-06 14:01 29.19969 76.33831 21184 ft 473 kts 132°
2026-05-06 14:02 29.17777 76.36625 20617 ft 469 kts 132°
2026-05-06 14:02 29.15606 76.39390 20046 ft 466 kts 132°
2026-05-06 14:02 29.13445 76.42141 19473 ft 462 kts 132°
2026-05-06 14:02 29.11303 76.44866 18932 ft 459 kts 132°
2026-05-06 14:03 29.09176 76.47569 18333 ft 448 kts 132°
2026-05-06 14:03 29.07148 76.50147 17729 ft 429 kts 132°
2026-05-06 14:03 29.05152 76.52682 17181 ft 427 kts 133°
2026-05-06 14:03 29.03196 76.55163 16633 ft 426 kts 133°
2026-05-06 14:04 29.01213 76.57678 16079 ft 424 kts 133°
2026-05-06 14:04 28.99241 76.60176 15534 ft 422 kts 133°
2026-05-06 14:04 28.97276 76.62664 14997 ft 420 kts 133°
2026-05-06 14:04 28.95325 76.65133 14461 ft 419 kts 133°
2026-05-06 14:05 28.93376 76.67599 13922 ft 417 kts 133°
2026-05-06 14:05 28.91457 76.70026 13633 ft 398 kts 133°
2026-05-06 14:05 28.89679 76.72276 13420 ft 366 kts 133°
2026-05-06 14:05 28.88048 76.74338 13265 ft 337 kts 133°
2026-05-06 14:06 28.86594 76.76174 13122 ft 312 kts 133°
2026-05-06 14:06 28.85182 76.77955 13000 ft 301 kts 134°
2026-05-06 14:06 28.83710 76.79805 12976 ft 329 kts 133°
2026-05-06 14:06 28.82110 76.81682 12800 ft 335 kts 143°
2026-05-06 14:07 28.80095 76.82943 12465 ft 327 kts 163°
2026-05-06 14:07 28.77965 76.83822 12162 ft 324 kts 163°
2026-05-06 14:07 28.75853 76.84695 11847 ft 322 kts 163°
2026-05-06 14:07 28.73759 76.85574 11530 ft 319 kts 163°
2026-05-06 14:08 28.71904 76.86363 11260 ft 317 kts 163°
2026-05-06 14:08 28.69846 76.87246 10955 ft 315 kts 163°
2026-05-06 14:08 28.67811 76.88124 10659 ft 313 kts 163°
2026-05-06 14:08 28.65779 76.89003 10355 ft 311 kts 163°
2026-05-06 14:09 28.63764 76.89876 10053 ft 308 kts 163°
2026-05-06 14:09 28.61797 76.90725 9851 ft 300 kts 163°
2026-05-06 14:09 28.59914 76.91498 9778 ft 281 kts 165°
2026-05-06 14:09 28.58072 76.92227 9783 ft 279 kts 165°
2026-05-06 14:10 28.56237 76.92952 9779 ft 279 kts 165°
2026-05-06 14:10 28.54403 76.93680 9776 ft 279 kts 165°
2026-05-06 14:10 28.52572 76.94410 9778 ft 279 kts 165°
2026-05-06 14:10 28.50740 76.95141 9777 ft 279 kts 165°
2026-05-06 14:11 28.48913 76.95878 9775 ft 277 kts 161°
2026-05-06 14:11 28.47325 76.97110 9767 ft 283 kts 131°
2026-05-06 14:11 28.46377 76.99118 9463 ft 296 kts 106°
2026-05-06 14:11 28.46063 77.00631 9255 ft 296 kts 103°
2026-05-06 14:12 28.45607 77.02920 8912 ft 297 kts 104°
2026-05-06 14:12 28.45134 77.05189 8639 ft 295 kts 104°
2026-05-06 14:12 28.44655 77.07448 8347 ft 292 kts 104°
2026-05-06 14:12 28.44178 77.09682 8109 ft 288 kts 104°
2026-05-06 14:13 28.43710 77.11863 7967 ft 275 kts 104°
2026-05-06 14:13 28.43268 77.13914 7600 ft 263 kts 104°
2026-05-06 14:13 28.42836 77.15920 7114 ft 256 kts 104°
2026-05-06 14:13 28.42419 77.17855 6826 ft 250 kts 103°
2026-05-06 14:14 28.42010 77.19750 6566 ft 249 kts 103°
2026-05-06 14:14 28.41598 77.21661 6292 ft 248 kts 103°
2026-05-06 14:14 28.41189 77.23554 6016 ft 246 kts 103°
2026-05-06 14:14 28.40785 77.25420 5763 ft 242 kts 103°
2026-05-06 14:15 28.40386 77.27262 5503 ft 239 kts 103°
2026-05-06 14:15 28.39981 77.29074 5261 ft 235 kts 104°
2026-05-06 14:15 28.39558 77.30841 5094 ft 227 kts 104°
2026-05-06 14:15 28.39145 77.32552 5079 ft 223 kts 104°
2026-05-06 14:16 28.38741 77.34242 5016 ft 220 kts 104°
2026-05-06 14:16 28.38343 77.35923 5010 ft 221 kts 103°
2026-05-06 14:16 28.37946 77.37611 4970 ft 220 kts 103°
2026-05-06 14:16 28.37854 77.39298 4692 ft 215 kts 71°
2026-05-06 14:17 28.38597 77.40693 4448 ft 204 kts 36°
2026-05-06 14:17 28.39866 77.41287 4150 ft 200 kts
2026-05-06 14:17 28.41197 77.40903 3820 ft 200 kts 330°
2026-05-06 14:17 28.42362 77.40020 3582 ft 201 kts 325°
2026-05-06 14:18 28.43492 77.39087 3368 ft 200 kts 324°
2026-05-06 14:18 28.44613 77.38155 3166 ft 200 kts 324°
2026-05-06 14:18 28.45732 77.37218 2951 ft 199 kts 324°
2026-05-06 14:18 28.46843 77.36280 2759 ft 197 kts 324°
2026-05-06 14:19 28.47922 77.35358 2690 ft 193 kts 324°
2026-05-06 14:19 28.48850 77.34249 2598 ft 198 kts 296°
2026-05-06 14:19 28.49335 77.32765 2624 ft 203 kts 291°
2026-05-06 14:19 28.49751 77.31245 2599 ft 200 kts 288°
2026-05-06 14:20 28.50093 77.29765 2611 ft 186 kts 287°
2026-05-06 14:20 28.50392 77.28384 2587 ft 173 kts 286°
2026-05-06 14:20 28.50666 77.27107 2576 ft 161 kts 287°
2026-05-06 14:20 28.50924 77.25906 2605 ft 155 kts 287°
2026-05-06 14:21 28.51181 77.24706 2608 ft 158 kts 287°
2026-05-06 14:21 28.51442 77.23485 2608 ft 159 kts 287°
2026-05-06 14:21 28.51704 77.22261 2608 ft 160 kts 287°
2026-05-06 14:21 28.51967 77.21032 2596 ft 160 kts 287°
2026-05-06 14:22 28.52231 77.19802 2377 ft 161 kts 286°
2026-05-06 14:22 28.52480 77.18635 2193 ft 157 kts 287°
2026-05-06 14:22 28.52738 77.17426 1995 ft 156 kts 287°
2026-05-06 14:22 28.52994 77.16236 1795 ft 155 kts 287°
2026-05-06 14:23 28.53254 77.15031 1614 ft 158 kts 287°
2026-05-06 14:23 28.53513 77.13813 1408 ft 157 kts 284°
2026-05-06 14:23 28.53771 77.12594 1164 ft 156 kts 285°
2026-05-06 14:23 28.54029 77.11397 981 ft 157 kts 284°
2026-05-06 14:24 28.54286 77.10186 784 ft 156 kts 284°
2026-05-06 14:24 28.54529 77.09092 754 ft 133 kts 283°
2026-05-06 14:24 28.54709 77.08240 753 ft 88 kts 284°
2026-05-06 14:24 28.54819 77.07731 756 ft 46 kts 284°
2026-05-06 14:25 28.54866 77.07571 753 ft 12 kts 316°
2026-05-06 14:25 28.54942 77.07563 755 ft 11 kts
2026-05-06 14:25 28.55020 77.07580 752 ft 12 kts 11°
2026-05-06 14:25 28.55048 77.07587 752 ft 0 kts 13°
2026-05-06 14:27 28.55055 77.07589 753 ft 6 kts 13°
2026-05-06 14:27 28.55150 77.07623 752 ft 22 kts 16°
2026-05-06 14:28 28.55319 77.07672 751 ft 26 kts 14°
2026-05-06 14:28 28.55486 77.07720 752 ft 18 kts 14°
2026-05-06 14:28 28.55607 77.07755 754 ft 18 kts 14°
2026-05-06 14:28 28.55728 77.07790 751 ft 18 kts 14°
2026-05-06 14:29 28.55847 77.07824 752 ft 18 kts 14°
2026-05-06 14:29 28.55958 77.07856 751 ft 10 kts 14°
2026-05-06 14:29 28.56025 77.07889 752 ft 11 kts 46°
2026-05-06 14:29 28.56034 77.07957 751 ft 8 kts 102°
2026-05-06 14:30 28.56021 77.08018 751 ft 8 kts 107°
2026-05-06 14:30 28.55996 77.08070 751 ft 5 kts 87°
2026-05-06 14:30 28.56004 77.08092 753 ft 3 kts 66°
2026-05-06 14:30 28.56015 77.08118 751 ft 4 kts 63°
2026-05-06 14:31 28.56024 77.08136 751 ft 0 kts 61°